When you browse on this site, cookies collect data to enhance your experience and personalize the content and advertising you see.
Visit our Privacy Policy to learn more. By continuing to use the site, you agree to this use of cookies and data.
  • In Deutschland
  • Länderverzeichnis
  • Für 7 Tage
  • Wassertemperatur
  • Wetterkarte
  • Widgets
  • user-avatar
    Anmelden

    Stündliche Wetter Escaldes-Engordany

    Heute, 11 Dezember, Mittwoch

    Zeit Temperatur Niederschläge Wind Luftdruck Luftfeuchtigkeit
    00:00 +2°C° 0 mm 2 m/S 639 mmHg 35%
    01:00 +3°C° 0 mm 2 m/S 639 mmHg 37%
    02:00 +3°C° 0 mm 2 m/S 638 mmHg 39%
    03:00 +4°C° 0 mm 1 m/S 638 mmHg 41%
    04:00 +4°C° 0 mm 1 m/S 637 mmHg 42%
    05:00 +3°C° 0 mm 1 m/S 637 mmHg 42%
    06:00 +3°C° 0 mm 1 m/S 637 mmHg 43%
    07:00 +4°C° 0 mm 1 m/S 637 mmHg 44%
    08:00 +4°C° 0 mm 1 m/S 637 mmHg 44%
    09:00 +4°C° 0 mm 0 m/S 637 mmHg 45%
    10:00 +6°C° 0 mm 1 m/S 637 mmHg 49%
    11:00 +6°C° 0 mm 1 m/S 637 mmHg 53%
    12:00 +7°C° 0 mm 1 m/S 637 mmHg 57%
    13:00 +5°C° 0.6 mm 2 m/S 637 mmHg 66%
    14:00 +2°C° 0.6 mm 3 m/S 636 mmHg 76%
    15:00 +1°C° 0.6 mm 3 m/S 636 mmHg 85%
    16:00 0°C° 0.1 mm 3 m/S 635 mmHg 86%
    17:00 -2°C° 0.1 mm 3 m/S 635 mmHg 87%
    18:00 -4°C° 0.1 mm 2 m/S 635 mmHg 89%
    19:00 -4°C° 0.1 mm 2 m/S 635 mmHg 87%
    20:00 -4°C° 0.1 mm 2 m/S 634 mmHg 86%
    21:00 -4°C° 0.1 mm 2 m/S 634 mmHg 85%
    22:00 -3°C° 0.5 mm 2 m/S 634 mmHg 87%
    23:00 -3°C° 0.5 mm 2 m/S 634 mmHg 89%

    Morgen, 12 Dezember, Donnerstag

    Zeit Temperatur Niederschläge Wind Luftdruck Luftfeuchtigkeit
    00:00 -2°C° 0.5 mm 2 m/S 634 mmHg 90%
    01:00 -2°C° 0.8 mm 2 m/S 634 mmHg 92%
    02:00 -3°C° 0.8 mm 2 m/S 634 mmHg 93%
    03:00 -3°C° 0.8 mm 2 m/S 633 mmHg 94%
    04:00 -3°C° 0.4 mm 2 m/S 633 mmHg 94%
    05:00 -1°C° 0.4 mm 1 m/S 633 mmHg 93%
    06:00 -1°C° 0.4 mm 1 m/S 633 mmHg 93%
    07:00 0°C° 0.3 mm 1 m/S 633 mmHg 89%
    08:00 +1°C° 0.3 mm 1 m/S 633 mmHg 86%
    09:00 +1°C° 0.3 mm 1 m/S 633 mmHg 83%
    10:00 +2°C° 0.2 mm 1 m/S 633 mmHg 81%
    11:00 +3°C° 0.2 mm 1 m/S 633 mmHg 78%
    12:00 +4°C° 0.2 mm 1 m/S 633 mmHg 75%
    13:00 +4°C° 0 mm 1 m/S 632 mmHg 77%
    14:00 +3°C° 0 mm 1 m/S 632 mmHg 80%
    15:00 +3°C° 0 mm 1 m/S 631 mmHg 82%
    16:00 +1°C° 0.1 mm 2 m/S 630 mmHg 86%
    17:00 +1°C° 0.1 mm 2 m/S 629 mmHg 90%
    18:00 -1°C° 0.1 mm 2 m/S 628 mmHg 94%
    19:00 -1°C° 1.7 mm 2 m/S 628 mmHg 95%
    20:00 -1°C° 1.7 mm 2 m/S 627 mmHg 96%
    21:00 +1°C° 1.7 mm 1 m/S 627 mmHg 96%
    22:00 +1°C° 2 mm 1 m/S 627 mmHg 97%
    23:00 +2°C° 2 mm 1 m/S 627 mmHg 97%

    übermorgen, 13 Dezember, Freitag

    Zeit Temperatur Niederschläge Wind Luftdruck Luftfeuchtigkeit
    00:00 +2°C° 2 mm 1 m/S 627 mmHg 98%
    01:00 +2°C° 1.4 mm 1 m/S 626 mmHg 98%
    02:00 +2°C° 1.4 mm 1 m/S 626 mmHg 98%
    03:00 +2°C° 1.4 mm 1 m/S 625 mmHg 98%
    04:00 +3°C° 1.6 mm 1 m/S 625 mmHg 98%
    05:00 +3°C° 1.6 mm 1 m/S 625 mmHg 98%
    06:00 +2°C° 1.6 mm 2 m/S 625 mmHg 99%
    07:00 +2°C° 2.2 mm 2 m/S 625 mmHg 98%
    08:00 +3°C° 2.2 mm 2 m/S 626 mmHg 98%
    09:00 +3°C° 2.2 mm 2 m/S 626 mmHg 98%
    10:00 +2°C° 2.6 mm 3 m/S 626 mmHg 97%
    11:00 +2°C° 2.6 mm 3 m/S 626 mmHg 97%
    12:00 +2°C° 2.6 mm 3 m/S 627 mmHg 97%
    13:00 +2°C° 2 mm 3 m/S 627 mmHg 97%
    14:00 +2°C° 2 mm 3 m/S 627 mmHg 97%
    15:00 +2°C° 2 mm 3 m/S 627 mmHg 97%
    16:00 +2°C° 2.3 mm 3 m/S 628 mmHg 98%
    17:00 +2°C° 2.3 mm 3 m/S 629 mmHg 98%
    18:00 +2°C° 2.3 mm 2 m/S 629 mmHg 99%
    19:00 +2°C° 2.2 mm 2 m/S 630 mmHg 98%
    20:00 +3°C° 2.2 mm 2 m/S 630 mmHg 98%
    21:00 +3°C° 2.2 mm 2 m/S 631 mmHg 98%
    22:00 +3°C° 1.1 mm 2 m/S 631 mmHg 98%
    23:00 +3°C° 1.1 mm 2 m/S 632 mmHg 98%

    14 Dezember, Samstag

    Zeit Temperatur Niederschläge Wind Luftdruck Luftfeuchtigkeit
    00:00 +3°C° 1.1 mm 2 m/S 632 mmHg 98%
    01:00 +3°C° 0 mm 2 m/S 632 mmHg 98%
    02:00 +3°C° 0 mm 2 m/S 632 mmHg 98%
    03:00 +3°C° 0 mm 2 m/S 632 mmHg 97%
    04:00 +2°C° 0 mm 2 m/S 632 mmHg 96%
    05:00 +2°C° 0 mm 2 m/S 633 mmHg 95%
    06:00 +2°C° 0 mm 2 m/S 633 mmHg 93%
    07:00 +2°C° 0 mm 2 m/S 634 mmHg 93%
    08:00 +3°C° 0 mm 2 m/S 634 mmHg 92%
    09:00 +4°C° 0 mm 1 m/S 635 mmHg 91%
    10:00 +5°C° 0 mm 1 m/S 635 mmHg 91%
    11:00 +5°C° 0 mm 1 m/S 635 mmHg 90%
    12:00 +6°C° 0 mm 1 m/S 635 mmHg 90%
    13:00 +5°C° 0 mm 0 m/S 635 mmHg 91%
    14:00 +5°C° 0 mm 0 m/S 635 mmHg 93%
    15:00 +4°C° 0 mm 0 m/S 635 mmHg 94%
    16:00 +3°C° 0 mm 0 m/S 634 mmHg 93%
    17:00 +3°C° 0 mm 1 m/S 634 mmHg 92%
    18:00 +2°C° 0 mm 1 m/S 634 mmHg 91%
    19:00 +2°C° 0 mm 1 m/S 634 mmHg 90%
    20:00 +2°C° 0 mm 1 m/S 634 mmHg 89%
    21:00 +1°C° 0 mm 1 m/S 634 mmHg 88%
    22:00 +1°C° 0 mm 1 m/S 634 mmHg 89%
    23:00 +1°C° 0 mm 1 m/S 634 mmHg 89%

    15 Dezember, Sonntag

    Zeit Temperatur Niederschläge Wind Luftdruck Luftfeuchtigkeit
    00:00 +1°C° 0 mm 1 m/S 634 mmHg 89%
    01:00 0°C° 0 mm 1 m/S 633 mmHg 87%
    02:00 0°C° 0 mm 1 m/S 633 mmHg 85%
    03:00 0°C° 0 mm 1 m/S 633 mmHg 83%
    04:00 -2°C° 0 mm 2 m/S 633 mmHg 82%
    05:00 -2°C° 0 mm 2 m/S 633 mmHg 80%
    06:00 -2°C° 0 mm 2 m/S 633 mmHg 79%
    07:00 -1°C° 0 mm 2 m/S 634 mmHg 80%
    08:00 +3°C° 0 mm 1 m/S 635 mmHg 81%
    09:00 +4°C° 0 mm 1 m/S 636 mmHg 82%
    10:00 +5°C° 0 mm 1 m/S 636 mmHg 83%
    11:00 +6°C° 0 mm 1 m/S 636 mmHg 83%
    12:00 +6°C° 0 mm 1 m/S 636 mmHg 84%
    13:00 +5°C° 0 mm 2 m/S 636 mmHg 85%
    14:00 +5°C° 0 mm 2 m/S 635 mmHg 85%
    15:00 +4°C° 0 mm 2 m/S 635 mmHg 86%
    16:00 +3°C° 0 mm 2 m/S 634 mmHg 87%
    17:00 +2°C° 0 mm 2 m/S 634 mmHg 89%
    18:00 +1°C° 0 mm 2 m/S 633 mmHg 90%
    19:00 +1°C° 0 mm 2 m/S 633 mmHg 90%
    20:00 +1°C° 0 mm 2 m/S 633 mmHg 89%
    21:00 +1°C° 0 mm 2 m/S 633 mmHg 89%
    22:00 +1°C° 0 mm 2 m/S 633 mmHg 88%
    23:00 +1°C° 0 mm 2 m/S 633 mmHg 87%

    16 Dezember, Montag

    Zeit Temperatur Niederschläge Wind Luftdruck Luftfeuchtigkeit
    00:00 +1°C° 0 mm 2 m/S 633 mmHg 86%
    01:00 +1°C° 0 mm 2 m/S 632 mmHg 83%
    02:00 -1°C° 0 mm 2 m/S 632 mmHg 80%
    03:00 -1°C° 0 mm 2 m/S 631 mmHg 78%
    04:00 -1°C° 0 mm 2 m/S 631 mmHg 78%
    05:00 -1°C° 0 mm 2 m/S 631 mmHg 77%
    06:00 -1°C° 0 mm 2 m/S 630 mmHg 77%
    07:00 0°C° 0 mm 3 m/S 631 mmHg 77%
    08:00 +1°C° 0 mm 3 m/S 631 mmHg 78%
    09:00 +2°C° 0 mm 3 m/S 631 mmHg 78%
    10:00 +3°C° 0 mm 3 m/S 631 mmHg 79%
    11:00 +4°C° 0 mm 4 m/S 630 mmHg 81%
    12:00 +4°C° 0 mm 4 m/S 630 mmHg 83%
    13:00 +4°C° 0 mm 4 m/S 630 mmHg 85%
    14:00 +3°C° 0 mm 4 m/S 629 mmHg 88%
    15:00 +3°C° 0 mm 4 m/S 628 mmHg 91%
    16:00 +3°C° 0 mm 4 m/S 628 mmHg 92%
    17:00 +3°C° 0 mm 3 m/S 628 mmHg 94%
    18:00 +2°C° 0 mm 3 m/S 628 mmHg 95%
    19:00 +2°C° 0.1 mm 3 m/S 628 mmHg 95%
    20:00 +2°C° 0.1 mm 3 m/S 628 mmHg 95%
    21:00 +2°C° 0.1 mm 3 m/S 628 mmHg 95%
    22:00 +2°C° 0.1 mm 3 m/S 628 mmHg 95%
    23:00 +3°C° 0.1 mm 2 m/S 628 mmHg 95%
    Mehr zeigen